Le nostre stazioni meteo in Italia

Pubblicità
Il mio iltempo24.it
Pratica Di Mare, Italia (16245): Temperatura & dewpoint: 22.05.2018 09:00:00 - 28.05.2018 09:00:00 (CEST)Pratica Di Mare, Italia (16245): velocità del vento: 22.05.2018 09:00:00 - 28.05.2018 09:00:00 (CEST)Pratica Di Mare, Italia (16245): direzione del vento: 22.05.2018 09:00:00 - 28.05.2018 09:00:00 (CEST)Pratica Di Mare, Italia (16245): reduced air pressure: 22.05.2018 09:00:00 - 28.05.2018 09:00:00 (CEST)Pratica Di Mare, Italia (16245): visibility: 22.05.2018 09:00:00 - 28.05.2018 09:00:00 (CEST)Pratica Di Mare, Italia (16245): ore di luce: 22.05.2018 09:00:00 - 28.05.2018 09:00:00 (CEST)
Data & Tempo tt [°C] td [°C] ff [km/h] ff [kn] dd ppp [hPa] vv [km] sd [min]
28.05.2018 09:00:00 23,0 21,0 5 3 SSE - 10 -
28.05.2018 08:00:00 20,2 19,4 4 2 ESE 1017,9 15 -
28.05.2018 07:00:00 18,0 17,0 8 4 E - 10 -
28.05.2018 06:00:00 18,0 16,0 2 1 NNE - 10 -
28.05.2018 05:00:00 19,0 17,3 2 1 N 1018,1 15 -
28.05.2018 04:00:00 19,0 17,0 2 1 NNE - 10 -
28.05.2018 03:00:00 19,0 18,0 9 5 NNE - 10 -
28.05.2018 02:00:00 19,2 18,6 9 5 NNE 1017,8 15 -
28.05.2018 01:00:00 19,0 19,0 8 4 NNE - 10 -
28.05.2018 00:00:00 19,0 19,0 5 3 NNE - 10 -
27.05.2018 23:00:00 19,8 19,3 4 2 ENE 1017,5 15 -
27.05.2018 22:00:00 21,0 21,0 2 1 NNO - 10 -
27.05.2018 21:00:00 22,0 21,0 2 1 SSO - 10 -
27.05.2018 20:00:00 24,4 22,5 4 2 S 1016,8 15 -
27.05.2018 19:00:00 25,0 20,0 5 3 S - 10 -
27.05.2018 18:00:00 25,0 21,0 5 3 SSO - 10 -
27.05.2018 17:00:00 24,8 20,9 4 2 S 1017,9 20 -
27.05.2018 16:00:00 25,0 24,0 8 4 SSO - 10 -
27.05.2018 15:00:00 25,0 23,0 18 10 SSO - 10 -
27.05.2018 14:00:00 25,8 22,5 21 11 S 1018,2 18 -
27.05.2018 13:00:00 25,0 22,0 18 10 S - 10 -
27.05.2018 12:00:00 25,0 23,0 15 8 S - 10 -
27.05.2018 11:00:00 23,6 22,0 13 7 S 1018,4 15 -
27.05.2018 10:00:00 23,0 21,0 13 7 S - 10 -
27.05.2018 09:00:00 22,0 21,0 5 3 S - 10 -
27.05.2018 08:00:00 22,4 19,8 8 4 SO 1017,8 15 -
27.05.2018 07:00:00 20,0 19,0 11 6 E - 10 -
27.05.2018 06:00:00 18,0 17,0 4 2 E - 10 -
27.05.2018 05:00:00 18,0 17,2 2 1 ESE 1017,6 12 -
27.05.2018 04:00:00 18,0 17,0 4 2 ESE - 10 -
27.05.2018 03:00:00 19,0 18,0 8 4 N - 10 -
27.05.2018 02:00:00 19,0 18,2 5 3 N 1018,2 12 -
27.05.2018 01:00:00 19,0 18,0 5 3 O - 10 -
27.05.2018 00:00:00 20,0 18,0 8 4 NNO - 10 -
26.05.2018 23:00:00 20,0 18,8 8 4 N 1018,4 12 -
26.05.2018 22:00:00 20,0 20,0 5 3 N - 10 -
26.05.2018 21:00:00 22,0 21,0 5 3 N - 10 -
26.05.2018 20:00:00 23,4 22,0 8 4 ONO 1017,9 20 -
26.05.2018 19:00:00 24,0 22,0 11 6 O - 10 -
26.05.2018 18:00:00 25,0 21,0 15 8 O - 10 -
26.05.2018 17:00:00 24,8 21,5 13 7 O 1018,0 20 -
26.05.2018 16:00:00 25,0 21,0 13 7 SO - 10 -
26.05.2018 15:00:00 25,0 20,0 13 7 OSO - 10 -
26.05.2018 14:00:00 25,0 20,3 13 7 SO 1017,9 20 -
26.05.2018 13:00:00 25,0 21,0 13 7 SSO - 10 -
26.05.2018 12:00:00 25,0 21,0 13 7 SSO - 10 -
26.05.2018 11:00:00 23,6 20,9 11 6 SO 1017,9 20 -
26.05.2018 10:00:00 23,0 20,0 9 5 SO - 10 -
26.05.2018 09:00:00 22,0 20,0 5 3 SSE - 10 -
26.05.2018 08:00:00 19,0 18,5 2 1 SSE 1017,5 15 -
26.05.2018 07:00:00 17,0 17,0 2 1 NNE - 10 -
26.05.2018 06:00:00 17,0 16,0 4 2 N - 10 -
26.05.2018 05:00:00 17,0 16,4 4 2 N 1016,7 15 -
26.05.2018 04:00:00 17,0 17,0 4 2 NNE - 10 -
26.05.2018 03:00:00 17,0 17,0 5 3 NNE - 10 -
26.05.2018 02:00:00 17,6 17,0 5 3 N 1016,8 15 -
26.05.2018 01:00:00 18,0 17,0 8 4 NNE - 10 -
26.05.2018 00:00:00 18,0 17,0 5 3 NNE - 10 -
25.05.2018 23:00:00 18,0 17,4 5 3 N 1016,6 15 -
25.05.2018 22:00:00 19,0 18,0 4 2 NNO - 10 -
25.05.2018 21:00:00 21,0 20,0 5 3 ONO - 10 -
25.05.2018 20:00:00 21,6 19,7 11 6 ONO 1015,7 15 -
25.05.2018 19:00:00 23,0 21,0 15 8 O - 10 -
25.05.2018 18:00:00 23,0 18,0 13 7 O - 10 -
25.05.2018 17:00:00 23,6 19,7 15 8 O 1015,5 18 -
25.05.2018 16:00:00 24,0 19,0 16 9 O - 10 -
25.05.2018 15:00:00 24,0 21,0 15 8 O - 10 -
25.05.2018 14:00:00 23,0 20,3 13 7 SO 1015,7 15 -
25.05.2018 13:00:00 23,0 21,0 16 9 SO - 10 -
25.05.2018 12:00:00 23,0 21,0 15 8 S - 10 -
25.05.2018 11:00:00 23,2 20,5 13 7 S 1015,6 15 -
25.05.2018 10:00:00 23,0 20,0 8 4 SE - 10 -
25.05.2018 09:00:00 22,0 20,0 5 3 ESE - 10 -
25.05.2018 08:00:00 19,4 18,7 4 2 N 1015,5 10 -
25.05.2018 07:00:00 17,0 17,0 5 3 NNE - 6 -
25.05.2018 06:00:00 16,0 15,0 5 3 NNO - 7 -
25.05.2018 05:00:00 16,2 15,6 5 3 ONO 1015,2 12 -
25.05.2018 04:00:00 19,0 19,0 5 3 NO - 10 -
25.05.2018 03:00:00 17,0 16,0 4 2 N - 10 -
25.05.2018 02:00:00 17,0 16,2 5 3 N 1015,6 12 -
25.05.2018 01:00:00 18,0 17,0 4 2 N - 10 -
25.05.2018 00:00:00 18,0 18,0 5 3 NO - 10 -
24.05.2018 23:00:00 19,2 18,4 11 6 N 1015,7 15 -
24.05.2018 22:00:00 19,0 18,0 5 3 NO - 10 -
24.05.2018 21:00:00 20,0 19,0 8 4 ONO - 10 -
24.05.2018 20:00:00 21,0 19,7 18 10 ONO 1015,5 12 -
24.05.2018 19:00:00 22,0 20,0 21 11 O - 10 -
24.05.2018 18:00:00 23,0 19,0 24 13 ONO - 10 -
24.05.2018 17:00:00 23,0 19,8 24 13 O 1015,7 15 -
24.05.2018 16:00:00 23,0 20,0 28 15 O - 10 -
24.05.2018 15:00:00 23,0 19,0 22 12 O - 10 -
24.05.2018 14:00:00 23,2 17,9 22 12 O 1016,7 18 -
24.05.2018 13:00:00 23,0 19,0 21 11 O - 10 -
24.05.2018 12:00:00 23,0 19,0 16 9 O - 10 -
24.05.2018 11:00:00 22,6 18,6 15 8 O 1016,8 15 0
24.05.2018 10:00:00 21,0 18,0 5 3 NNO - 10 -
24.05.2018 09:00:00 20,0 18,0 9 5 N - 10 -
24.05.2018 08:00:00 18,8 17,5 9 5 N 1016,7 15 -
24.05.2018 07:00:00 17,0 16,0 5 3 NO - 10 -
24.05.2018 06:00:00 17,0 16,0 5 3 N - 10 -
24.05.2018 05:00:00 17,0 16,5 8 4 NNO 1016,0 10 -
24.05.2018 04:00:00 17,0 17,0 8 4 NNO - 10 -
24.05.2018 03:00:00 17,0 17,0 5 3 N - 10 -
24.05.2018 02:00:00 17,0 16,5 8 4 OSO 1016,0 10 -
24.05.2018 01:00:00 18,0 17,0 5 3 OSO - 10 -
24.05.2018 00:00:00 18,0 17,0 5 3 NNO - 10 -
23.05.2018 23:00:00 18,4 17,6 8 4 NO 1016,1 10 -
23.05.2018 22:00:00 19,0 18,0 11 6 ONO - 10 -
23.05.2018 21:00:00 22,0 21,0 11 6 SSO - 10 -
23.05.2018 20:00:00 21,8 18,8 16 9 ONO 1014,5 15 -
23.05.2018 19:00:00 22,0 20,0 22 12 ONO - 10 -
23.05.2018 18:00:00 22,0 20,0 29 16 ONO - 10 -
23.05.2018 17:00:00 22,2 20,1 31 17 ONO 1014,3 15 -
23.05.2018 16:00:00 22,0 20,0 26 14 ONO - 10 -
23.05.2018 15:00:00 23,0 20,0 24 13 O - 10 -
23.05.2018 14:00:00 20,2 17,8 22 12 O 1014,6 12 -
23.05.2018 13:00:00 20,0 18,0 16 9 O - 10 -
23.05.2018 12:00:00 19,0 16,0 9 5 ONO - 10 -
23.05.2018 11:00:00 19,6 18,6 11 6 O 1014,8 12 -
23.05.2018 10:00:00 19,0 19,0 5 3 NNO - 10 -
23.05.2018 09:00:00 19,0 18,0 4 2 N - 10 -
23.05.2018 08:00:00 17,8 17,5 4 2 NE 1013,9 10 -
23.05.2018 07:00:00 17,0 16,0 4 2 N - 8 -
23.05.2018 06:00:00 17,0 15,0 4 2 NE - 8 -
23.05.2018 05:00:00 17,2 16,2 2 1 N 1013,6 8 -
23.05.2018 04:00:00 18,0 17,0 5 3 NE - 8 -
23.05.2018 03:00:00 18,0 17,0 4 2 NE - 8 -
23.05.2018 02:00:00 18,8 18,0 4 2 NNE 1014,6 8 -
23.05.2018 01:00:00 19,0 18,0 8 4 SE - 6 -
23.05.2018 00:00:00 19,0 18,0 5 3 SSE - 8 -
22.05.2018 23:00:00 18,8 18,2 4 2 S 1013,9 8 -
22.05.2018 22:00:00 19,0 18,0 2 1 SO - 10 -
22.05.2018 21:00:00 20,0 19,0 5 3 E - 10 -
22.05.2018 20:00:00 20,2 19,2 8 4 SSE 1013,9 10 -
22.05.2018 19:00:00 22,0 18,0 15 8 S - 10 -
22.05.2018 18:00:00 22,0 18,0 15 8 S - 10 -
22.05.2018 17:00:00 21,8 17,6 24 13 SSE 1014,3 15 -
22.05.2018 16:00:00 21,0 19,0 18 10 SSE - 10 -
22.05.2018 15:00:00 23,0 22,0 21 11 S - 10 -
22.05.2018 14:00:00 23,4 20,7 22 12 SSE 1014,4 15 -
22.05.2018 13:00:00 23,0 18,0 24 13 S - 10 -
22.05.2018 12:00:00 23,0 19,0 26 14 SSE - 10 -
22.05.2018 11:00:00 22,0 19,4 22 12 S 1014,2 15 -
22.05.2018 10:00:00 21,0 19,0 16 9 SSE - 10 -
22.05.2018 09:00:00 20,0 19,0 15 8 SE - 10 -

tt = Temperatura
td = dewpoint
ff = velocità del vento
dd = direzione del vento
ppp = reduced air pressure
vv = visibility
sd = ore di luce

Stazioni seguenti

WeatherPro
AMSI
MeteoEarth